This is the latest recevied weather packets stored in our database for station/object W1LBM. If no packets are shown the sender has not sent any weather packets the latest 10 day(s).
| Time | Temp. | Humidity | Pressure | Rain* | Wind** | Luminosity | Snow |
|---|---|---|---|---|---|---|---|
| 1777469125 | 9.44° C | 81% | 1020.3 hPa | 0 mm | - | 198 W/m² | - |
| 1777468825 | 9.44° C | 80% | 1020.2 hPa | 0 mm | - | 224 W/m² | - |
| 1777468521 | 9.44° C | 80% | 1020.3 hPa | 0 mm | - | 203 W/m² | - |
| 1777468218 | 9.44° C | 80% | 1020.1 hPa | 0 mm | - | 221 W/m² | - |
| 1777467915 | 9.44° C | 80% | 1020.7 hPa | 0 mm | - | 207 W/m² | - |
| 1777467610 | 9.44° C | 80% | 1020.7 hPa | 0 mm | - | 182 W/m² | - |
| 1777467306 | 9.44° C | 80% | 1020.8 hPa | 0 mm | - | 194 W/m² | - |
| 1777467001 | 9.44° C | 80% | 1020.7 hPa | 0 mm | - | 192 W/m² | - |
| 1777466699 | 8.89° C | 81% | 1020.9 hPa | 0 mm | - | 172 W/m² | - |
| 1777466397 | 9.44° C | 80% | 1020.6 hPa | 0 mm | - | 184 W/m² | - |
| 1777466092 | 8.89° C | 82% | 1020.7 hPa | 0 mm | - | 164 W/m² | - |
| 1777465789 | 8.89° C | 82% | 1020.7 hPa | 0 mm | - | 166 W/m² | - |
| 1777465485 | 8.89° C | 83% | 1020.9 hPa | 0 mm | - | 161 W/m² | - |
| 1777465184 | 8.33° C | 83% | 1020.8 hPa | 0 mm | - | 143 W/m² | - |
| 1777464879 | 8.33° C | 84% | 1020.7 hPa | 0 mm | - | 128 W/m² | - |
| 1777464575 | 8.33° C | 84% | 1020.8 hPa | 0 mm | - | 99 W/m² | - |
| 1777464271 | 8.33° C | 84% | 1021 hPa | 0 mm | - | 102 W/m² | - |
| 1777463967 | 8.33° C | 83% | 1020.9 hPa | 0 mm | - | 103 W/m² | - |
| 1777463662 | 7.78° C | 84% | 1020.6 hPa | 0 mm | - | 117 W/m² | - |
| 1777463356 | 7.78° C | 84% | 1020.5 hPa | 0 mm | - | 105 W/m² | - |
| 1777463054 | 7.78° C | 85% | 1020.6 hPa | 0 mm | - | 92 W/m² | - |
| 1777462749 | 7.78° C | 84% | 1020.7 hPa | 0 mm | - | 95 W/m² | - |
| 1777462444 | 7.78° C | 84% | 1020.7 hPa | 0 mm | - | 90 W/m² | - |
| 1777462141 | 7.78° C | 85% | 1020.5 hPa | 0 mm | - | 94 W/m² | - |
| 1777461837 | 7.78° C | 85% | 1020.8 hPa | 0 mm | - | 76 W/m² | - |
* Rain latest hour (hover to see other rain measurements)
** Current wind speed in m/s (hover to see current wind gust speed)